Location: Remedello Sotto
(45.2500°N, 10.3667°E)
Time: 21:34:08
(UTC+00:00)

Cosmos 468 Rocket - Pass Details

Date: 03 February 2023
Orbit: 744 x 778 km, 74.0° (Epoch: 23 March)

Event Time Altitude Azimuth Distance (km) Brightness Sun altitude
Rises 18:00:49 0° 336° (NNW) 3,219 7.5 -16.5°
Reaches altitude 10° 18:03:12 10° 334° (NNW) 2,285 6.7 -17.0°
Maximum altitude 18:08:20 69° 253° (WSW) 802 4.3 -17.9°
Drops below altitude 10° 18:13:24 10° 170° (S) 2,254 6.4 -18.7°
Sets 18:15:45 0° 168° (SSE) 3,171 7.1 -19.1°
